Location: Rio Negrinho
(26.2394°S, 49.4999°W)
Time: 02:02:17
(UTC+00:00)

SEDSat Delta rocket - Pass Details

Date: 10 October 2020
Orbit: 533 x 1000 km, 31.4° (Epoch: 20 October)

Event Time Altitude Azimuth Distance (km) Brightness Sun altitude
Rises 22:26:03 0° 257° (WSW) 3,615 8.9 -14.7°
Reaches altitude 10° 22:28:53 10° 252° (WSW) 2,614 7.7 -15.4°
Maximum altitude 22:35:02 54° 175° (S) 1,023 4.2 -16.7°
Enters shadow 22:38:24 23° 107° (ESE) 1,627 4.7 -17.4°
